Powrót do katalogu

CZ-6A DEB

AktywnyPO
NORAD 61119·DEBRIS·🇨🇳 China

Wystrzelony Aug 6, 2024 z Taiyuan Satellite Launch Center

Loading…

Następne Przeloty (najbliższe 24 godziny)

TLE

ŚwieżeSource: Space-Track

Epoka: Sep 12, 2026, 23:44 UTC

1 61119U 24140PM  26255.98894812  .00027485  00000-0  20759-2 0  9999
2 61119  89.0235 260.1602 0041867 221.6624 138.1420 15.01569486111358

Śledź CZ-6A DEB w czasie rzeczywistym z AllMySat

Download on the App Store